User: anonymous   Login
Location: Fours
(44.3167°N, 6.7000°E)
Time: 05:39:16
(UTC+00:00)
Language:

CZ-4C R/B - Orbit

View from above orbital plane
View from above orbital plane
View from above satellite
View from above satellite

Ground track
Ground track

The orbit data is extracted from the following two-line orbital elements,

1 32290U 07055B   22021.50330017  .00005589  00000-0  12793-3 0  9991
2 32290  97.6810 216.0840 0054241 249.1401 110.4032 15.41697476789822
Epoch (UTC): 21 January 2022 12:04:45
Eccentricity: 0.0054241
inclination: 97.6810°
perigee height: 404 km
apogee height: 478 km
right ascension of ascending node: 216.0840°
argument of perigee: 249.1401°
revolutions per day: 15.41697476
mean anomaly at epoch: 110.4032°
orbit number at epoch: 78982

The dashed part of the orbit path shows where the satellite is in the earth's shadow,  

DLR